+ View the NASA Portal
+ Center for Near-Earth Object Studies
IMPORTANT:
The SSD Announcement email list is now available. Major changes are coming in the near future, including possible hostname and/or URL changes. To be notified of such changes, subscribe to this email list.
Please visit
this page
for more details.
Don't show this message again
JPL Small-Body Database Browser
Search:
[
help
]
357834 (2005 UE124)
Classification:
Main-belt Asteroid
SPK-ID:
2357834
[
Ephemeris
|
Orbit Diagram
|
Orbital Elements
|
Mission Design
|
Physical Parameters
|
Discovery Circumstances
]
[ show orbit diagram ]
Orbital Elements at Epoch 2458600.5 (2019-Apr-27.0) TDB
Reference:
JPL 9
(heliocentric ecliptic J2000)
Element
Value
Uncertainty (1-sigma)
Units
e
.03448258113549279
5.1963e-08
a
2.151974622634268
1.7052e-08
au
q
2.077768983107761
1.0541e-07
au
i
7.021050852514255
5.123e-06
deg
node
31.98418728443433
7.3495e-05
deg
peri
40.35528417805111
0.00016259
deg
M
71.19368531360902
0.00014573
deg
t
p
2458372.469405736099
(2018-Sep-10.96940574)
0.00046625
TDB
period
1153.065943607111
3.16
1.3705e-05
3.752e-08
d
yr
n
.3122111115985438
3.7109e-09
deg/d
Q
2.226180262160776
1.764e-08
au
Orbit Determination Parameters
# obs. used (total)
140
data-arc span
4846 days (13.27 yr)
first obs. used
2005-10-24
last obs. used
2019-01-30
planetary ephem.
DE431
SB-pert. ephem.
SB431-N16
condition code
0
norm. resid. RMS
.57629
source
ORB
producer
Otto Matic
solution date
2019-Jul-14 05:19:42
Additional Information
Earth MOID
= 1.09444 au
Jupiter MOID
= 2.83751 au
T_jup
= 3.694
[ show covariance matrix ]
[
Ephemeris
|
Orbit Diagram
|
Orbital Elements
|
Mission Design
|
Physical Parameters
|
Discovery Circumstances
]
Physical Parameter Table
Parameter
Symbol
Value
Units
Sigma
Reference
Notes
absolute magnitude
H
17.7
n/a
MPO418817
357834 (2005 UE124)
Discovered 2005-Oct-24 by Spacewatch at Kitt Peak
Reference:
20130327/Numbers.arc
Last Updated:
2013-03-29
Alternate Designations
2005 UE124
= 2007 HU20
[
Ephemeris
|
Orbit Diagram
|
Orbital Elements
|
Mission Design
|
Physical Parameters
|
Discovery Circumstances
]
2019-Dec-11 20:56 UT
(server date/time)
Site Manager:
Ryan S. Park
Webmaster
:
Alan B. Chamberlin